This demonstration page uses our WeatherBlox Daily Observations layout. Learn more.

40.92945, -100.16068

Hourly Observations for May 7, 2017

Temp ( °F °C ) Dew Point ( °F °C ) Humidity (%) Winds ( mph kmh ) Pressure ( in mb ) Visibility ( mi km ) Precip ( " mm )
12:15 am 00:15 Clear 64 17.5 45 7.1 51 51 SSE 12 19 29.83 1010 10 16.09344 0 0
12:35 am 00:35 Clear 63 17.3 45 7.2 52 52 SSE 10 17 29.83 1010 10 16.09344 0 0
12:55 am 00:55 Clear 62 16.9 46 7.5 54 54 SSE 9 15 29.83 1010 10 16.09344 0 0
1:15 am 01:15 Clear 63 17 46 7.5 54 54 SSE 13 20 29.83 1010 10 16.09344 0 0
1:35 am 01:35 Clear 64 17.5 46 7.5 52 52 S 14 22 29.83 1010 10 16.09344 0 0
1:55 am 01:55 Clear 63 17.3 46 7.5 53 53 S 13 20 29.83 1010 10 16.09344 0 0
2:15 am 02:15 Clear 62 16.8 46 7.7 55 55 SSE 12 19 29.83 1010 10 16.09344 0 0
2:35 am 02:35 Clear 62 16.5 46 7.6 56 56 SSE 12 19 29.83 1010 10 16.09344 0 0
2:55 am 02:55 Clear 60 15.7 46 8 60 60 SSE 9 15 29.83 1010 10 16.09344 0 0
3:15 am 03:15 Clear 60 15.5 47 8.1 62 62 S 9 15 29.83 1010 10 16.09344 0 0
3:35 am 03:35 Clear 59 15.1 47 8.2 64 64 SE 5 7 29.85 1011 10 16.09344 0 0
3:55 am 03:55 Clear 57 14 47 8.3 69 69 SSE 8 13 29.85 1011 10 16.09344 0 0
4:15 am 04:15 Clear 55 13 47 8.3 73 73 SE 7 11 29.85 1011 10 16.09344 0 0
4:35 am 04:35 Clear 55 12.7 47 8.3 75 75 SE 7 11 29.85 1011 10 16.09344 0 0
4:55 am 04:55 Clear 56 13.5 47 8.5 72 72 SE 7 11 29.85 1011 10 16.09344 0 0
5:15 am 05:15 Clear 56 13.4 47 8.4 72 72 SE 6 9 29.85 1011 10 16.09344 0 0
5:35 am 05:35 Clear 56 13.5 47 8.5 72 72 SE 7 11 29.85 1011 10 16.09344 0 0
5:55 am 05:55 Clear 55 12.5 47 8.5 77 77 SE 7 11 29.85 1011 10 16.09344 0 0
6:15 am 06:15 Clear 55 12.6 47 8.5 76 76 ESE 8 13 29.85 1011 10 16.09344 0 0
6:35 am 06:35 Sunny 55 12.5 47 8.5 77 77 SE 7 11 29.85 1011 10 16.09344 0 0
6:55 am 06:55 Sunny 55 12.7 47 8.6 76 76 SE 7 11 29.85 1011 10 16.09344 0 0
7:15 am 07:15 Sunny 56 13.5 48 8.8 73 73 SE 9 15 29.85 1011 10 16.09344 0 0
7:35 am 07:35 Sunny 58 14.7 48 9.1 69 69 SE 10 17 29.85 1011 10 16.09344 0 0
7:55 am 07:55 Sunny 60 15.6 49 9.3 66 66 SE 9 15 29.83 1010 10 16.09344 0 0
8:15 am 08:15 Sunny 61 16.2 50 9.8 66 66 SE 10 17 29.8 1009 10 16.09344 0 0
8:35 am 08:35 Sunny 64 17.7 50 9.8 60 60 SSE 14 22 29.8 1009 10 16.09344 0 0
8:55 am 08:55 Sunny 66 18.7 49 9.7 56 56 SSE 13 20 29.8 1009 10 16.09344 0 0
9:15 am 09:15 Sunny 66 19 50 9.9 56 56 SSE 10 17 29.8 1009 10 16.09344 0 0
9:35 am 09:35 Sunny 69 20.6 50 9.8 50 50 SSE 14 22 29.77 1008 10 16.09344 0 0
9:55 am 09:55 Sunny 70 21.3 50 9.8 48 48 S 18 30 29.77 1008 10 16.09344 0 0
10:15 am 10:15 Sunny 72 22 51 10.3 48 48 SSE 20 31 29.74 1007 10 16.09344 0 0
10:35 am 10:35 Sunny 73 22.9 51 10.3 45 45 S 18 30 29.71 1006 10 16.09344 0 0
10:55 am 10:55 Sunny 75 23.7 50 9.9 42 42 S 17 28 29.71 1006 10 16.09344 0 0
11:15 am 11:15 Sunny 75 24.1 50 10.2 42 42 SSE 22 35 29.71 1006 10 16.09344 0 0
11:35 am 11:35 Sunny 76 24.6 51 10.4 41 41 S 18 30 29.71 1006 10 16.09344 0 0
11:55 am 11:55 Sunny 77 24.8 52 10.9 42 42 SSE 17 28 29.71 1006 10 16.09344 0 0
12:15 pm 12:15 Sunny 78 25.4 51 10.8 40 40 S 20 31 29.68 1005 10 16.09344 0 0
12:35 pm 12:35 Sunny 79 26.1 51 10.8 38 38 SSE 21 33 29.65 1004 10 16.09344 0 0
12:55 pm 12:55 Sunny 80 26.5 51 10.5 37 37 S 26 43 29.65 1004 10 16.09344 0 0
1:15 pm 13:15 Sunny 80 26.6 51 10.6 37 37 S 21 33 29.65 1004 10 16.09344 0 0
1:35 pm 13:35 Sunny 80 26.9 51 10.6 36 36 S 22 35 29.65 1004 10 16.09344 0 0
1:55 pm 13:55 Sunny 80 26.5 51 10.5 37 37 SSE 22 35 29.62 1003 10 16.09344 0 0
2:15 pm 14:15 Sunny 81 27.4 53 11.4 37 37 S 21 33 29.62 1003 10 16.09344 0 0
2:35 pm 14:35 Sunny 82 27.8 52 11.2 36 36 S 18 30 29.62 1003 10 16.09344 0 0
2:55 pm 14:55 Sunny 83 28.6 52 10.9 33 33 S 21 33 29.59 1002 10 16.09344 0 0
3:15 pm 15:15 Sunny 84 29 51 10.3 31 31 S 25 41 29.59 1002 10 16.09344 0 0
3:35 pm 15:35 Sunny 84 29 53 11.4 34 34 S 21 33 29.59 1002 10 16.09344 0 0
3:55 pm 15:55 Sunny 84 28.9 53 11.6 34 34 S 21 33 29.56 1001 10 16.09344 0 0
4:15 pm 16:15 Sunny 85 29.2 53 11.5 33 33 S 18 30 29.56 1001 10 16.09344 0 0
4:35 pm 16:35 Sunny 85 29.5 52 11 32 32 S 17 28 29.56 1001 10 16.09344 0 0
4:55 pm 16:55 Sunny 84 29.1 53 11.4 33 33 SSE 23 37 29.56 1001 10 16.09344 0 0
5:15 pm 17:15 Sunny 84 29.1 53 11.7 34 34 SSE 22 35 29.53 1000 10 16.09344 0 0
5:35 pm 17:35 Sunny with Thunderstorms 85 29.6 52 11.1 32 32 SSE 20 31 29.53 1000 10 16.09344 0 0
5:55 pm 17:55 Sunny 86 30 52 11.2 31 31 S 20 31 29.53 1000 10 16.09344 0 0
6:15 pm 18:15 Sunny 84 28.7 52 10.9 33 33 S 16 26 29.53 1000 10 16.09344 0 0
6:35 pm 18:35 Sunny 83 28.2 53 11.4 35 35 S 15 24 29.53 1000 10 16.09344 0 0
6:55 pm 18:55 Sunny 83 28.1 53 11.6 36 36 SSE 20 31 29.53 1000 10 16.09344 0 0
7:15 pm 19:15 Sunny 82 27.7 52 10.9 35 35 SSE 14 22 29.53 1000 10 16.09344 0 0
7:35 pm 19:35 Sunny 81 27.1 53 11.7 38 38 S 15 24 29.56 1001 10 16.09344 0 0
7:55 pm 19:55 Sunny 79 25.9 54 12.2 43 43 SSE 12 19 29.56 1001 10 16.09344 0 0
8:15 pm 20:15 Sunny 77 25 55 12.5 46 46 SSE 10 17 29.56 1001 10 16.09344 0 0
8:35 pm 20:35 Sunny 77 25 51 10.4 40 40 S 13 20 29.59 1002 10 16.09344 0 0
8:55 pm 20:55 Clear 78 25.8 51 10.5 38 38 S 16 26 29.59 1002 10 16.09344 0 0
9:15 pm 21:15 Clear 77 25.1 52 11 41 41 S 14 22 29.59 1002 10 16.09344 0 0
9:35 pm 21:35 Clear 76 24.6 52 11.2 43 43 S 13 20 29.59 1002 10 16.09344 0 0
9:55 pm 21:55 Clear 76 24.6 51 10.5 41 41 S 14 22 29.62 1003 10 16.09344 0 0
10:15 pm 22:15 Clear 76 24.6 49 9.5 38 38 SSW 12 19 29.62 1003 10 16.09344 0 0
10:35 pm 22:35 Clear 76 24.3 49 9.2 38 38 SSW 10 17 29.65 1004 10 16.09344 0 0
10:55 pm 22:55 Clear 74 23.5 49 9.5 41 41 SSW 10 17 29.65 1004 10 16.09344 0 0
11:15 pm 23:15 Clear 74 23.3 49 9.5 42 42 S 12 19 29.65 1004 10 16.09344 0 0
11:35 pm 23:35 Clear 72 22.2 50 9.8 45 45 S 14 22 29.65 1004 10 16.09344 0 0
11:55 pm 23:55 Clear 72 22.4 49 9.6 44 44 S 12 19 29.68 1005 10 16.09344 0 0

Powered by AerisWeather